Airfield :
LOGIN :

Register | Disclaimer

   EN    FR    IT 

 










Legend :    VFR   Marginal VFR   IFR   Intensive IFR   Very Intensive IFR
Visi :
Ceiling :
>= 8 km
>= 3000ft
5 to 8 km
1000 to 3000 ft
1500m to 5 km
500 to 1000 ft
800 to 1500m
200 to 500 ft
< 800m
< 200 ft
Symbols :   Thunderstorms  Fog  Heavy snow  Heavy precipitations  Wind > 20 kt
SIGMETs :     Misc.  Thunderstorms  Icing  Turbulence  Mountain Waves  Volcanic Ashes







- Airport Elevation : 135 ft
- IATA code : EDI
- Download approach charts


EGPH - Edinburgh

CURRENT METAR :
  • 202150Z 25005KT CAVOK 12/09 Q1005

EXPIRED METARs :
  • 202120Z 25007KT CAVOK 11/09 Q1005
  • 202050Z AUTO 23008KT 9999 NCD 12/09 Q1004
  • 202020Z 22013KT CAVOK 13/08 Q1004
  • 201950Z 23006KT CAVOK 13/07 Q1004
  • 201920Z AUTO 26004KT 9999 NCD 14/08 Q1004

TAF TAF EGPH
Valid from the 20 at 18:00 until the 21 at 18:00 UTC


201705Z 2018/2118 24009KT 9999 FEW035
BECMG 2103/2106 10010KT
PROB30
TEMPO 2108/2112 BKN012
ATIS : +44 131 339 2823
No reported NOTAMs for that airfield.



MET'MAP, your aeronautical weather chart ! - Copyright ORBIFLY December 2007 - Disclaimer

ORBIFLY MET'MAP TEAM :

Programming & Development : Alexandra Zaïnal
Concept & Development : Baudouin d'Aumeries
Co-Development & Prog : Marc-Olivier Méhu
Technical & hardware support : Manuel Goepfert

Contact : metmap@orbifly.com




SOURCES & CREDITS :

   NOAA